Elm City, NC

6:38 PM EST on December 04, 2016 (GMT -0500)
Rocky Mount-Wilson Regional

Weather History for KRWI - July, 2013

Change the Weather History Date:

Wednesday, July 3, 2013

  Actual Average Record
Temperature  
Mean Temperature 80 °F -  
Max Temperature 87 °F 88 °F 101 °F (1956)
Min Temperature 73 °F 67 °F 51 °F (1957)
Cooling Degree Days 14    
Growing Degree Days 30 (Base 50)    
Moisture  
Dew Point 73 °F    
Average Humidity 86    
Maximum Humidity 96    
Minimum Humidity 69    
Precipitation  
Precipitation 0.17 in - - ()
Sea Level Pressure  
Sea Level Pressure 30.24 in    
Wind  
Wind Speed 4 mph (South)    
Max Wind Speed 9 mph    
Max Gust Speed -    
Visibility 8 miles    
Events Rain , Thunderstorm    
Averages and records for this station are not official NWS values.
T = Trace of Precipitation, MM = Missing Value Source: NWS Daily Summary

Daily Weather History Graph

Daily Weather History Graph

Search for Another Location

Airport or City:

Trip Planner

Search our weather history database for the weather conditions in past years. The results will help you decide how hot, cold, wet, or windy it might be!

Date:

Astronomy

Jul. 03, 2013 Rise Set
Actual Time 5:59 AM EDT 8:31 PM EDT
Civil Twilight 5:29 AM EDT 9:01 PM EDT
Nautical Twilight 4:52 AM EDT 9:38 PM EDT
Astronomical Twilight 4:11 AM EDT 10:19 PM EDT
Moon 2:32 AM EDT (7/3) 4:43 PM EDT (7/3)
Length of Visible Light 15h 31m
Length of Day
14h 31m
Waning Crescent, 18% of the Moon is Illuminated
Jul 3
Waning Crescent
Jul 8
New
Jul 15
First Quarter
Jul 22
Full
Jul 29
Last Quarter

Hourly Weather History & Observations

Time (EDT) Temp. Heat Index Dew Point Humidity Pressure Visibility Wind Dir Wind Speed Gust Speed Precip Events Conditions
12:53 AM 73.9 °F - 71.1 °F 91% 30.20 in 10.0 mi Calm Calm - N/A   Clear
1:53 AM 73.0 °F - 71.1 °F 93% 30.20 in 10.0 mi SSE 3.5 mph - N/A   Clear
2:36 AM 73.4 °F - 71.6 °F 94% 30.19 in 10.0 mi Calm Calm - N/A   Mostly Cloudy
2:50 AM 73.4 °F - 71.6 °F 94% 30.19 in 9.0 mi SSE 4.6 mph - N/A   Overcast
2:53 AM 73.9 °F - 72.0 °F 93% 30.18 in 9.0 mi SE 3.5 mph - N/A   Overcast
3:53 AM 75.0 °F - 73.0 °F 94% 30.18 in 9.0 mi SSE 4.6 mph - N/A   Overcast
4:53 AM 75.0 °F - 73.0 °F 94% 30.19 in 9.0 mi South 6.9 mph - N/A   Overcast
5:53 AM 75.0 °F - 73.0 °F 94% 30.20 in 9.0 mi South 6.9 mph - N/A   Overcast
6:53 AM 75.0 °F - 73.0 °F 94% 30.22 in 6.0 mi South 4.6 mph - N/A   Overcast
7:53 AM 75.9 °F - 73.0 °F 91% 30.24 in 6.0 mi South 8.1 mph - N/A   Overcast
8:53 AM 77.0 °F - 73.9 °F 90% 30.26 in 6.0 mi South 4.6 mph - 0.00 in   Overcast
9:50 AM 78.8 °F - 73.4 °F 83% 30.27 in 8.0 mi SSW 8.1 mph - 0.01 in   Overcast
9:53 AM 79.0 °F - 73.9 °F 84% 30.26 in 8.0 mi SSW 5.8 mph - 0.01 in   Overcast
10:40 AM 80.6 °F 86.2 °F 75.2 °F 84% 30.26 in 10.0 mi Calm Calm - N/A   Mostly Cloudy
10:48 AM 82.4 °F 89.5 °F 75.2 °F 79% 30.26 in 10.0 mi SSE 6.9 mph - N/A   Mostly Cloudy
10:53 AM 82.9 °F 90.2 °F 75.0 °F 77% 30.25 in 10.0 mi Variable 4.6 mph - N/A   Mostly Cloudy
11:53 AM 86.0 °F 95.1 °F 75.0 °F 70% 30.25 in 10.0 mi Variable 3.5 mph - N/A   Partly Cloudy
12:53 PM 84.0 °F 90.2 °F 73.0 °F 69% 30.24 in 10.0 mi Variable 5.8 mph - N/A   Scattered Clouds
1:10 PM 82.4 °F 88.2 °F 73.4 °F 74% 30.24 in 10.0 mi SSE 6.9 mph - N/A Thunderstorm Scattered Clouds
1:49 PM 80.6 °F 85.4 °F 73.4 °F 79% 30.26 in 10.0 mi WNW 8.1 mph - N/A   Scattered Clouds
1:53 PM 79.0 °F - 73.0 °F 82% 30.25 in 10.0 mi WNW 9.2 mph - N/A   Mostly Cloudy
2:04 PM 78.8 °F - 73.4 °F 83% 30.25 in 10.0 mi WNW 3.5 mph - N/A   Mostly Cloudy
2:28 PM 80.6 °F 85.4 °F 73.4 °F 79% 30.24 in 10.0 mi Calm Calm - 0.00 in Rain Light Rain
2:53 PM 82.9 °F 90.2 °F 75.0 °F 77% 30.23 in 10.0 mi South 8.1 mph - 0.00 in   Mostly Cloudy
3:53 PM 82.9 °F 88.8 °F 73.0 °F 72% 30.23 in 10.0 mi SSE 4.6 mph - N/A   Mostly Cloudy
4:53 PM 84.9 °F 92.1 °F 73.9 °F 69% 30.21 in 10.0 mi SSW 4.6 mph - N/A   Partly Cloudy
5:27 PM 82.4 °F 88.2 °F 73.4 °F 74% 30.22 in 10.0 mi South 6.9 mph - 0.00 in Rain , Thunderstorm Light Rain
5:42 PM 78.8 °F - 75.2 °F 89% 30.22 in 3.0 mi SE 6.9 mph - 0.06 in Rain Light Rain
5:53 PM 78.1 °F - 73.9 °F 87% 30.22 in 10.0 mi SSE 4.6 mph - 0.06 in Rain Light Rain
6:53 PM 78.1 °F - 73.9 °F 87% 30.24 in 10.0 mi Calm Calm - 0.00 in   Scattered Clouds
7:12 PM 77.0 °F - 73.4 °F 89% 30.25 in 1.8 mi SSE 6.9 mph - 0.09 in Rain Heavy Rain
7:20 PM 75.2 °F - 73.4 °F 94% 30.25 in 4.0 mi South 4.6 mph - 0.10 in Rain Light Rain
7:53 PM 75.9 °F - 73.9 °F 94% 30.24 in 10.0 mi South 3.5 mph - 0.10 in   Mostly Cloudy
8:53 PM 75.0 °F - 73.0 °F 94% 30.26 in 10.0 mi Calm Calm - N/A   Partly Cloudy
9:40 PM 73.4 °F - 71.6 °F 94% 30.26 in 1.8 mi Calm Calm - N/A   Clear
9:53 PM 73.0 °F - 72.0 °F 96% 30.26 in 2.0 mi Calm Calm - N/A   Clear
10:03 PM 73.4 °F - 71.6 °F 94% 30.27 in 3.0 mi Calm Calm - N/A   Clear
10:53 PM 73.9 °F - 72.0 °F 93% 30.26 in 9.0 mi Calm Calm - N/A   Clear
11:53 PM 73.9 °F - 72.0 °F 93% 30.27 in 10.0 mi Calm Calm - N/A   Clear